Regional Weather Roundup
Issued by NWS

Home | Current Version | Previous Version | Graphics & Text | Print | Product List | Glossary Off
Versions: 1 2 3 4 5 6 7 8 9 10 11 12 13 14 15 16 17 18 19 20 21 22 23 24 25 26 27 28 29 30 31 32 33 34 35 36 37 38 39 40 41 42 43 44 45 46 47 48 49 50

000
ASUS43 KDMX 050906
RWRIA

WEATHER ROUNDUP FOR IOWA
NATIONAL WEATHER SERVICE DES MOINES IA
300 AM CST MON DEC 05 2016

NOTE: "FAIR" INDICATES FEW OR NO CLOUDS BELOW 12,000 FEET WITH NO
SIGNIFICANT WEATHER AND/OR OBSTRUCTIONS TO VISIBILITY.

* - THESE STATIONS ARE NOT NWS STATIONS...THUS NOT UNDER NWS
QUALITY CONTROL.  THEY ALSO DO NOT REPORT WEATHER SUCH
AS PRECIPITATION OR FOG.

IAZ001>003-012>014-020>022-031>034-043>046-051000-
   NORTHWEST IOWA

CITY           SKY/WX    TMP DP  RH WIND       PRES   REMARKS
CARROLL *      CLOUDY    34  32  93 S12       29.84S WCI  25
CHEROKEE *     CLEAR     30  30  99 S7        29.81S WCI  23
DENISON *      PTCLDY    32  30  93 S8        29.81F WCI  25
LE MARS *      PTCLDY    32  30  93 S8        29.78S WCI  25
ORANGE CITY *  MOCLDY    30  30 100 S3        29.75F
SHELDON *      CLOUDY    32  32 100 S10       29.75S WCI  24
SIOUX CITY     CLOUDY    31  29  92 SE13      29.77F WCI  21
SPENCER        CLOUDY    31  30  96 S12       29.79F WCI  22
STORM LAKE *   CLOUDY    28  28 100 S12       29.80F WCI  18
$$

IAZ055>058-069>071-079>083-090>094-051000-
   SOUTHWEST IOWA

CITY           SKY/WX    TMP DP  RH WIND       PRES   REMARKS
ATLANTIC *     CLOUDY    32  32 100 S8        29.86F WCI  25
AUDUBON *      CLOUDY    28  27  93 CALM      29.86S FOG
CLARINDA *       N/A     32  32 100 S7        29.92S WCI  26
COUNCIL BLFS * CLOUDY    36  32  87 S10       29.84S WCI  28
CRESTON *      CLOUDY    30  30 100 S10       29.90F FOG     WCI  21
HARLAN  *      MOCLDY    30  30 100 S6        29.88F WCI  24
LAMONI         FOG       30  29  96 S9        29.92S VSB 1/2 WCI  22
RED OAK *      CLOUDY    32  32 100 S6        29.88F WCI  26
SHENANDOAH *   CLOUDY    34  32  93 S5        29.89S WCI  30
$$

IAZ047>049-059>061-072>074-084-051000-
   CENTRAL IOWA

CITY           SKY/WX    TMP DP  RH WIND       PRES   REMARKS
AMES           CLEAR     26  26 100 SE5       29.89S FOG     WCI  20
ANKENY *       CLOUDY    30 N/A N/A S5        29.92S FOG     WCI  25
BOONE *        CLEAR     30  32 100 S6        29.87S WCI  24
CHARITON *     FOG       32  32 100 S10       29.93S VSB 1/4 WCI  24
DES MOINES     CLOUDY    31  29  92 S7        29.91S WCI  24
GRINNELL*      FOG       32  32  99 S9        29.92S VSB 1/4 WCI  24
KNOXVILLE *    FOG       34  32  93 S9        29.92R VSB 1/4 WCI  26
MARSHALLTOWN   MOCLDY    30  30 100 S7        29.90R FOG     WCI  23
NEWTON *       FOG       28  28 100 S7        29.91S VSB 1   WCI  21
PELLA *        FOG       33  33  98 SW7       29.94S VSB 1/2 WCI  27
PERRY *          N/A     32  32 100 S7        29.88R WCI  26
$$

IAZ004>006-015-016-023>025-035-036-051000-
   NORTH CENTRAL IOWA

CITY           SKY/WX    TMP DP  RH WIND       PRES   REMARKS
ALGONA *       CLOUDY    32  32 100 S10       29.82S WCI  24
CLARION *      CLOUDY    30  32 100 S9        29.85F WCI  22
ESTHERVILLE    PTCLDY    30  30 100 S7        29.79F WCI  23
FORT DODGE *   MOCLDY    30  27  86 S6        29.86S WCI  24
MASON CITY     CLEAR     27  25  92 S5        29.86S WCI  22
FOREST CITY *    N/A     28  28 100 S5        29.84S FOG     WCI  23
WEBSTER CITY * CLEAR     28  28 100 S8        29.85R WCI  20
IOWA FALLS *     N/A     29  28  94 SE3       29.89R
$$

IAZ007>011-017>019-026>030-037>042-050>054-066-051000-
   NORTHEAST IOWA

CITY           SKY/WX    TMP DP  RH WIND       PRES   REMARKS
CEDAR RAPIDS   FOG       33  33 100 S10       29.94R VSB 3/4 WCI  25
CHARLES CITY * FOG       28  28 100 S8        29.88S VSB 1   WCI  20
CLINTON *      CLOUDY    33  32  96 SW14      29.98R WCI  23
DECORAH *      CLOUDY    32  32 100 VRB5      29.88R FOG     WCI  27
DUBUQUE        CLOUDY    33  32  96 SW12      29.92R FOG     WCI  24
MONTICELLO *   CLOUDY    34  32  93 SW9       29.94R FOG     WCI  26
OELWEIN *      FOG       30  30 100 S6        29.91R VSB<1/4 WCI  24
WATERLOO       CLEAR     29  28  96 S7        29.91R FOG     WCI  22
$$

IAZ064-065-067-068-078-051000-
   EAST CENTRAL IOWA

CITY           SKY/WX    TMP DP  RH WIND       PRES   REMARKS
DAVENPORT      CLOUDY    33  31  92 SW8       29.98R FOG     WCI  26
IOWA CITY      CLOUDY    34  33  96 S8        29.98S FOG     WCI  27
MUSCATINE *    CLOUDY    34  32  93 S7        29.99F FOG     WCI  28
QUAD CITIES    CLOUDY    35  31  85 SW7       29.99R WCI  29
$$

IAZ062-063-075>077-085>089-095>099-051000-
   SOUTHEAST IOWA

CITY           SKY/WX    TMP DP  RH WIND       PRES   REMARKS
BURLINGTON     CLOUDY    33  33 100 SW5       29.99S WCI  29
FAIRFIELD *    FOG       32  32 100 S8        29.98R VSB 1/2 WCI  25
FORT MADISON * CLOUDY    34  34 100 SW5       30.01R FOG     WCI  30
KEOKUK *       CLOUDY    34  34 100 SW6       30.01R FOG     WCI  29
OSKALOOSA *    FOG       33  33  99 S9        29.96R VSB 3/4 WCI  25
CENTERVILLE *  FOG       32  32 100 S12       29.97R VSB 1   WCI  23
OTTUMWA        FOG       34  33  96 S9        29.96R VSB 3/4 WCI  27
WASHINGTON *   FOG       32  32 100 S10       29.98S VSB 3/4 WCI  24
$$

ABBREVIATIONS USED IN REMARKS
   TC - TEMPERATURES IN CELSIUS
  WCI - WIND CHILL INDEX
   HX - HEAT INDEX
  VSB - VISIBILITY
$$





USA.gov is the U.S. government's official web portal to all federal, state and local government web resources and services.